Regional Weather Roundup
Issued by NWS

Home | Current Version | Previous Version | Graphics & Text | Print | Product List | Glossary On
Versions: 1 2 3 4 5 6 7 8 9 10 11 12 13 14 15 16 17 18 19 20 21 22 23 24 25 26 27 28 29 30 31 32 33 34 35 36 37 38 39 40 41 42 43 44 45 46 47 48 49 50
165
ASUS45 KSLC 261910
RWRUT

UTAH REGIONAL WEATHER ROUNDUP
NATIONAL WEATHER SERVICE SALT LAKE CITY UT
100 PM MDT TUE JUL 26 2016

UTZ001>011-023>025-262000-

NORTHERN UTAH

CITY           SKY/WX    TMP DP  RH WIND       PRES   REMARKS
BRIGHAM CITY     N/A     93  31  11 S9        30.06F
DUGWAY         MOSUNNY   95  28   9 NW7       30.09F
HILL AFB       SUNNY     93  43  18 S9G16     30.11F
LOGAN          SUNNY     88  42  20 VRB5      30.08F
OGDEN          SUNNY     92  45  19 SW5       30.07F
PROVO AIRPORT  MOSUNNY   93  45  18 CALM      30.09F
SALT LAKE CITY MOSUNNY   99  41  13 S16G22    30.03F HX  94
VERNAL         CLOUDY    86  40  19 S5        30.16F
WENDOVER       SUNNY     91  34  13 SE9       30.07F
HEBER CITY     MOSUNNY   93  34  12 SW12G18   30.15F

$$

UTZ012>022-026-027-262000-

SOUTHERN/CENTRAL UTAH

CITY           SKY/WX    TMP DP  RH WIND       PRES   REMARKS
BLANDING       PTSUNNY   83  46  27 W3        30.32F
BRYCE CANYON   MOSUNNY   80  36  20 CALM      30.38F
CEDAR CITY     SUNNY     92  42  17 MISG      30.19F
DELTA          SUNNY     95  34  11 SW8       30.10F HX  90
MILFORD        SUNNY     97  40  14 S16       30.13F HX  92
MOAB/CYNLANDS  SUNNY     97  45  16 CALM      30.08F HX  93
PRICE          MOSUNNY   90  38  16 S8        30.20F
ST GEORGE      PTCLDY    99  52  20 N5        30.01F HX  96

$$

REGIONAL REPORTS     COLORADO/ARIZONA

CITY           SKY/WX    TMP DP  RH WIND       PRES   REMARKS
CRAIG, CO      SUNNY     90  33  13 VRB5      30.23F
GRAND JUNCTION MOSUNNY   92  43  18 VRB3      30.13F
RIFLE          CLOUDY    90  43  19 N7        30.20F
MONTROSE       CLOUDY    83  41  22 SE3       30.25F
CORTEZ         MOSUNNY   83  48  29 CALM      30.25F
PAGE, AZ       SUNNY     95  44  17 VRB5      30.10F HX  91
GRAND CANYON   PTSUNNY   86  45  23 S12       30.32F
KINGMAN        MOSUNNY  102  45  14 SE22G28   30.04F HX  98
FLAGSTAFF      PTSUNNY   80  53  39 E10       30.34F

$$

REGIONAL REPORTS    NEVADA/IDAHO/WYOMING

CITY           SKY/WX    TMP DP  RH WIND       PRES   REMARKS
LAS VEGAS, NV  MOSUNNY  103  45  14 NE7       29.89F HX  99
ELY            SUNNY     91  18   7 VRB5      30.23F
ELKO           SUNNY     93  17   6 MISG      30.15F
POCATELLO, ID  SUNNY     92  41  17 N6        30.08F
BURLEY         SUNNY     87  45  23 W5        30.06F
EVANSTON, WY   CLOUDY    88  31  13 SW18G24   30.28F
ROCK SPRINGS   CLOUDY    88  27  11 W15G21    30.27F
KEMMERER         N/A     86  27  11 W7G21     30.30F

$$




USA.gov is the U.S. government's official web portal to all federal, state and local government web resources and services.